ASA1377 KBNA-KPDX

Flight info

Callsign ASA1377
Flight time 4h 42m
Altitude 30000
Route PARDN4 NAKIY URAYU TKO/N0447F320 KD78U KU81S KU90K JKNOX HHOOD6
Aircraft B739/M-SDE2E3FGHIRWXY/LB1

Departure

Time 2026-05-06 17:01
Airport Nashville International Airport (KBNA)

Arrival

Time 2026-05-06 21:44
Airport Portland International Airport (KPDX)
Time Latitude Longitude Altitude Speed Heading
2026-05-06 16:50 36.12577 -86.67031 569 ft 3 kts 252°
2026-05-06 16:50 36.12581 -86.67011 572 ft 3 kts 253°
2026-05-06 16:51 36.12587 -86.66987 570 ft 3 kts 256°
2026-05-06 16:51 36.12591 -86.66963 570 ft 3 kts 271°
2026-05-06 16:51 36.12587 -86.66942 572 ft 3 kts 308°
2026-05-06 16:51 36.12592 -86.66949 573 ft 3 kts 310°
2026-05-06 16:52 36.12605 -86.66967 572 ft 3 kts 310°
2026-05-06 16:52 36.12618 -86.66987 568 ft 3 kts 310°
2026-05-06 16:52 36.12627 -86.67000 575 ft 0 kts 310°
2026-05-06 16:55 36.12629 -86.67003 568 ft 3 kts 310°
2026-05-06 16:55 36.12651 -86.67035 570 ft 5 kts 310°
2026-05-06 16:55 36.12676 -86.67071 572 ft 6 kts 310°
2026-05-06 16:56 36.12712 -86.67123 568 ft 10 kts 310°
2026-05-06 16:56 36.12768 -86.67204 568 ft 15 kts 312°
2026-05-06 16:56 36.12808 -86.67312 573 ft 14 kts 250°
2026-05-06 16:56 36.12741 -86.67397 577 ft 14 kts 208°
2026-05-06 16:57 36.12661 -86.67359 576 ft 13 kts 133°
2026-05-06 16:57 36.12596 -86.67274 576 ft 17 kts 133°
2026-05-06 16:57 36.12497 -86.67145 577 ft 22 kts 133°
2026-05-06 16:57 36.12394 -86.67010 573 ft 21 kts 133°
2026-05-06 16:58 36.12297 -86.66876 575 ft 21 kts 119°
2026-05-06 16:58 36.12252 -86.66711 570 ft 20 kts 107°
2026-05-06 16:58 36.12196 -86.66558 570 ft 20 kts 152°
2026-05-06 16:58 36.12064 -86.66594 577 ft 20 kts 198°
2026-05-06 16:59 36.11908 -86.66656 580 ft 28 kts 198°
2026-05-06 16:59 36.11720 -86.66731 585 ft 28 kts 198°
2026-05-06 16:59 36.11543 -86.66802 588 ft 26 kts 198°
2026-05-06 16:59 36.11418 -86.66851 591 ft 11 kts 198°
2026-05-06 17:00 36.11348 -86.66878 591 ft 10 kts 190°
2026-05-06 17:00 36.11299 -86.66828 589 ft 10 kts 108°
2026-05-06 17:00 36.11309 -86.66754 590 ft 10 kts 29°
2026-05-06 17:00 36.11377 -86.66726 590 ft 15 kts 18°
2026-05-06 17:01 36.11661 -86.66612 587 ft 78 kts 18°
2026-05-06 17:01 36.12404 -86.66315 569 ft 142 kts 18°
2026-05-06 17:01 36.13482 -86.65911 789 ft 170 kts 16°
2026-05-06 17:01 36.14599 -86.65486 1517 ft 175 kts 16°
2026-05-06 17:02 36.15884 -86.65108 1837 ft 199 kts
2026-05-06 17:02 36.17216 -86.65471 2438 ft 199 kts 333°
2026-05-06 17:02 36.18511 -86.66210 2805 ft 215 kts 330°
2026-05-06 17:02 36.19869 -86.66988 3271 ft 221 kts 332°
2026-05-06 17:03 36.21353 -86.67781 3427 ft 241 kts 333°
2026-05-06 17:03 36.22958 -86.68608 3578 ft 259 kts 334°
2026-05-06 17:03 36.24648 -86.69463 3928 ft 269 kts 334°
2026-05-06 17:03 36.26429 -86.70371 4280 ft 280 kts 330°
2026-05-06 17:04 36.27934 -86.71837 4884 ft 273 kts 300°
2026-05-06 17:04 36.28616 -86.73946 5562 ft 262 kts 272°
2026-05-06 17:04 36.28587 -86.76159 6188 ft 261 kts 257°
2026-05-06 17:04 36.28251 -86.78359 6786 ft 261 kts 255°
2026-05-06 17:05 36.27870 -86.80569 7414 ft 262 kts 255°
2026-05-06 17:05 36.27502 -86.82763 8202 ft 259 kts 255°
2026-05-06 17:05 36.27183 -86.84963 8908 ft 261 kts 261°
2026-05-06 17:05 36.27115 -86.87220 9595 ft 264 kts 265°
2026-05-06 17:06 36.27130 -86.89495 10238 ft 266 kts 266°
2026-05-06 17:06 36.27151 -86.91870 10428 ft 285 kts 266°
2026-05-06 17:06 36.27167 -86.94406 10597 ft 304 kts 266°
2026-05-06 17:06 36.27176 -86.97106 10735 ft 323 kts 266°
2026-05-06 17:07 36.27180 -86.99917 10923 ft 337 kts 266°
2026-05-06 17:07 36.27181 -87.02901 11335 ft 344 kts 266°
2026-05-06 17:07 36.27180 -87.05831 11934 ft 345 kts 265°
2026-05-06 17:07 36.27176 -87.08803 12570 ft 345 kts 265°
2026-05-06 17:08 36.27169 -87.11781 13165 ft 347 kts 265°
2026-05-06 17:08 36.27160 -87.14770 13741 ft 348 kts 265°
2026-05-06 17:08 36.27149 -87.17774 14272 ft 349 kts 265°
2026-05-06 17:08 36.27138 -87.20794 14806 ft 350 kts 265°
2026-05-06 17:09 36.27242 -87.23811 15328 ft 355 kts 274°
2026-05-06 17:09 36.27706 -87.26828 15848 ft 357 kts 277°
2026-05-06 17:09 36.28228 -87.29799 16413 ft 357 kts 278°
2026-05-06 17:09 36.28752 -87.32801 16939 ft 357 kts 277°
2026-05-06 17:10 36.29262 -87.35818 17434 ft 358 kts 277°
2026-05-06 17:10 36.29759 -87.38841 17931 ft 358 kts 277°
2026-05-06 17:10 36.30249 -87.41870 18400 ft 359 kts 277°
2026-05-06 17:10 36.30736 -87.44908 18765 ft 361 kts 278°
2026-05-06 17:11 36.31226 -87.47975 19130 ft 363 kts 278°
2026-05-06 17:11 36.31885 -87.51007 19460 ft 369 kts 288°
2026-05-06 17:11 36.32593 -87.52798 19675 ft 374 kts 294°
2026-05-06 17:11 36.33404 -87.54590 19910 ft 376 kts 294°
2026-05-06 17:12 36.34699 -87.57402 20245 ft 378 kts 295°
2026-05-06 17:12 36.36010 -87.60240 20618 ft 379 kts 295°
2026-05-06 17:12 36.37313 -87.63080 20967 ft 380 kts 295°
2026-05-06 17:12 36.38618 -87.65946 21316 ft 382 kts 294°
2026-05-06 17:13 36.39921 -87.68823 21660 ft 383 kts 294°
2026-05-06 17:13 36.41226 -87.71720 22008 ft 385 kts 294°
2026-05-06 17:13 36.42533 -87.74627 22329 ft 386 kts 294°
2026-05-06 17:13 36.43827 -87.77511 22645 ft 388 kts 294°
2026-05-06 17:14 36.45137 -87.80436 22971 ft 389 kts 294°
2026-05-06 17:14 36.46456 -87.83385 23289 ft 390 kts 295°
2026-05-06 17:14 36.47776 -87.86337 23575 ft 392 kts 295°
2026-05-06 17:14 36.49102 -87.89306 23819 ft 393 kts 295°
2026-05-06 17:15 36.50430 -87.92282 24062 ft 394 kts 294°
2026-05-06 17:15 36.51762 -87.95268 24311 ft 395 kts 295°
2026-05-06 17:15 36.53095 -87.98261 24578 ft 397 kts 295°
2026-05-06 17:15 36.54437 -88.01275 24820 ft 399 kts 294°
2026-05-06 17:16 36.55762 -88.04256 25072 ft 400 kts 294°
2026-05-06 17:16 36.57111 -88.07291 25314 ft 401 kts 294°
2026-05-06 17:16 36.58461 -88.10333 25563 ft 403 kts 294°
2026-05-06 17:16 36.59814 -88.13382 25870 ft 402 kts 294°
2026-05-06 17:17 36.61159 -88.16418 26245 ft 399 kts 294°
2026-05-06 17:17 36.62494 -88.19431 26644 ft 397 kts 294°
2026-05-06 17:17 36.63823 -88.22435 27034 ft 395 kts 294°
2026-05-06 17:17 36.65095 -88.25447 27385 ft 392 kts 291°
2026-05-06 17:18 36.66179 -88.28555 27764 ft 388 kts 288°
2026-05-06 17:18 36.67158 -88.31672 28194 ft 385 kts 287°
2026-05-06 17:18 36.68090 -88.34741 28595 ft 383 kts 287°
2026-05-06 17:18 36.69028 -88.37836 28963 ft 382 kts 287°
2026-05-06 17:19 36.69973 -88.40923 29329 ft 381 kts 287°
2026-05-06 17:19 36.70925 -88.44003 29649 ft 381 kts 287°
2026-05-06 17:19 36.71881 -88.47067 29992 ft 380 kts 287°
2026-05-06 17:20 36.73816 -88.53229 30045 ft 381 kts 287°
2026-05-06 17:20 36.75736 -88.59325 30048 ft 379 kts 287°
2026-05-06 17:21 36.77660 -88.65438 30041 ft 378 kts 287°
2026-05-06 17:21 36.79577 -88.71544 30047 ft 377 kts 287°
2026-05-06 17:22 36.81489 -88.77648 30048 ft 378 kts 287°
2026-05-06 17:22 36.83389 -88.83723 30045 ft 379 kts 287°
2026-05-06 17:23 36.85302 -88.89856 30057 ft 380 kts 287°
2026-05-06 17:23 36.87228 -88.96046 30028 ft 383 kts 286°
2026-05-06 17:24 36.89148 -89.02223 30068 ft 382 kts 286°
2026-05-06 17:24 36.91061 -89.08390 30076 ft 380 kts 286°
2026-05-06 17:25 36.92952 -89.14500 30085 ft 378 kts 286°
2026-05-06 17:25 36.94845 -89.20633 30077 ft 377 kts 286°
2026-05-06 17:26 36.96724 -89.26735 30088 ft 375 kts 285°
2026-05-06 17:26 36.97963 -89.30765 30077 ft 374 kts 286°
2026-05-06 17:27 36.99832 -89.36853 30081 ft 373 kts 285°
2026-05-06 17:27 37.01670 -89.42856 30075 ft 371 kts 285°
2026-05-06 17:28 37.03503 -89.48855 30082 ft 371 kts 285°
2026-05-06 17:28 37.05341 -89.54885 30078 ft 370 kts 285°
2026-05-06 17:29 37.07175 -89.60911 30071 ft 371 kts 285°
2026-05-06 17:29 37.08993 -89.66901 30072 ft 371 kts 285°
2026-05-06 17:30 37.10824 -89.72944 30069 ft 370 kts 285°
2026-05-06 17:30 37.12647 -89.78972 30070 ft 370 kts 285°
2026-05-06 17:31 37.14464 -89.84997 30069 ft 369 kts 285°
2026-05-06 17:31 37.16279 -89.91024 30071 ft 369 kts 285°
2026-05-06 17:32 37.18074 -89.97001 30075 ft 369 kts 285°
2026-05-06 17:32 37.19876 -90.03015 30068 ft 368 kts 285°
2026-05-06 17:33 37.21675 -90.09027 30075 ft 368 kts 284°
2026-05-06 17:33 37.23469 -90.15039 30069 ft 367 kts 284°
2026-05-06 17:34 37.25245 -90.21001 30074 ft 367 kts 284°
2026-05-06 17:34 37.27028 -90.27004 30078 ft 366 kts 284°
2026-05-06 17:35 37.28805 -90.32997 30082 ft 366 kts 284°
2026-05-06 17:35 37.30575 -90.38980 30089 ft 365 kts 284°
2026-05-06 17:36 37.33204 -90.47888 30085 ft 365 kts 284°
2026-05-06 17:36 37.34960 -90.53857 30088 ft 364 kts 284°
2026-05-06 17:37 37.36710 -90.59814 30091 ft 363 kts 284°
2026-05-06 17:37 37.38454 -90.65769 30090 ft 363 kts 283°
2026-05-06 17:38 37.40192 -90.71713 30087 ft 363 kts 283°
2026-05-06 17:38 37.41918 -90.77632 30087 ft 362 kts 283°
2026-05-06 17:39 37.43652 -90.83588 30087 ft 363 kts 283°
2026-05-06 17:39 37.45380 -90.89541 30101 ft 362 kts 283°
2026-05-06 17:40 37.47105 -90.95490 30094 ft 362 kts 283°
2026-05-06 17:40 37.48816 -91.01407 30103 ft 362 kts 283°
2026-05-06 17:41 37.50531 -91.07352 30091 ft 361 kts 283°
2026-05-06 17:41 37.51685 -91.11359 30102 ft 361 kts 282°
2026-05-06 17:42 37.53394 -91.17304 30107 ft 360 kts 282°
2026-05-06 17:42 37.55094 -91.23229 30097 ft 360 kts 282°
2026-05-06 17:43 37.56792 -91.29162 30094 ft 359 kts 282°
2026-05-06 17:43 37.58472 -91.35042 30100 ft 359 kts 282°
2026-05-06 17:44 37.60158 -91.40959 30089 ft 358 kts 282°
2026-05-06 17:44 37.61835 -91.46858 30092 ft 357 kts 282°
2026-05-06 17:45 37.63510 -91.52762 30091 ft 357 kts 281°
2026-05-06 17:45 37.65169 -91.58622 30095 ft 356 kts 281°
2026-05-06 17:46 37.66831 -91.64507 30092 ft 356 kts 281°
2026-05-06 17:46 37.68491 -91.70398 30093 ft 356 kts 281°
2026-05-06 17:47 37.70143 -91.76272 30100 ft 355 kts 281°
2026-05-06 17:47 37.71794 -91.82157 30100 ft 355 kts 281°
2026-05-06 17:48 37.73428 -91.87993 30093 ft 355 kts 281°
2026-05-06 17:48 37.75068 -91.93865 30099 ft 354 kts 281°
2026-05-06 17:49 37.76702 -91.99725 30100 ft 354 kts 281°
2026-05-06 17:49 37.78333 -92.05590 30112 ft 353 kts 280°
2026-05-06 17:50 37.79944 -92.11396 30104 ft 352 kts 280°
2026-05-06 17:50 37.81559 -92.17228 30114 ft 352 kts 280°
2026-05-06 17:51 37.83303 -92.23049 30100 ft 357 kts 284°
2026-05-06 17:51 37.85328 -92.28654 30107 ft 358 kts 284°
2026-05-06 17:52 37.87417 -92.34384 30103 ft 358 kts 284°
2026-05-06 17:52 37.89490 -92.40078 30124 ft 358 kts 284°
2026-05-06 17:53 37.91559 -92.45804 30123 ft 357 kts 284°
2026-05-06 17:53 37.93612 -92.51509 30137 ft 356 kts 284°
2026-05-06 17:54 37.95657 -92.57207 30140 ft 354 kts 283°
2026-05-06 17:54 37.97686 -92.62874 30134 ft 353 kts 283°
2026-05-06 17:55 37.99694 -92.68494 30144 ft 351 kts 283°
2026-05-06 17:55 38.01707 -92.74138 30150 ft 351 kts 283°
2026-05-06 17:56 38.03711 -92.79773 30146 ft 350 kts 283°
2026-05-06 17:56 38.04996 -92.83391 30148 ft 351 kts 283°
2026-05-06 17:57 38.06995 -92.89026 30140 ft 351 kts 283°
2026-05-06 17:57 38.08999 -92.94683 30133 ft 351 kts 283°
2026-05-06 17:58 38.10993 -93.00323 30121 ft 351 kts 282°
2026-05-06 17:58 38.12988 -93.05977 30133 ft 350 kts 282°
2026-05-06 17:59 38.14960 -93.11574 30132 ft 349 kts 282°
2026-05-06 17:59 38.16941 -93.17213 30144 ft 350 kts 282°
2026-05-06 18:00 38.18909 -93.22823 30156 ft 349 kts 282°
2026-05-06 18:00 38.20878 -93.28445 30162 ft 349 kts 282°
2026-05-06 18:01 38.22833 -93.34035 30152 ft 348 kts 282°
2026-05-06 18:01 38.24794 -93.39659 30161 ft 348 kts 282°
2026-05-06 18:02 38.26751 -93.45280 30162 ft 347 kts 282°
2026-05-06 18:02 38.28692 -93.50864 30156 ft 347 kts 282°
2026-05-06 18:03 38.30626 -93.56441 30155 ft 347 kts 282°
2026-05-06 18:03 38.32572 -93.62062 30152 ft 347 kts 282°
2026-05-06 18:04 38.34512 -93.67679 30151 ft 347 kts 282°
2026-05-06 18:04 38.36453 -93.73306 30157 ft 346 kts 282°
2026-05-06 18:05 38.38388 -93.78927 30150 ft 346 kts 281°
2026-05-06 18:05 38.40306 -93.84510 30146 ft 346 kts 281°
2026-05-06 18:06 38.42237 -93.90141 30144 ft 346 kts 281°
2026-05-06 18:06 38.44161 -93.95762 30149 ft 346 kts 281°
2026-05-06 18:07 38.46084 -94.01393 30141 ft 346 kts 281°
2026-05-06 18:07 38.48002 -94.07020 30162 ft 346 kts 281°
2026-05-06 18:08 38.49900 -94.12598 30185 ft 345 kts 281°
2026-05-06 18:08 38.51810 -94.18224 30195 ft 345 kts 281°
2026-05-06 18:09 38.53690 -94.23771 30200 ft 346 kts 281°
2026-05-06 18:09 38.55598 -94.29409 30209 ft 346 kts 281°
2026-05-06 18:10 38.57501 -94.35046 30206 ft 346 kts 281°
2026-05-06 18:10 38.59392 -94.40658 30205 ft 346 kts 281°
2026-05-06 18:11 38.60970 -94.45348 30209 ft 346 kts 281°
2026-05-06 18:11 38.62534 -94.50007 30197 ft 346 kts 281°
2026-05-06 18:12 38.64432 -94.55668 30040 ft 346 kts 281°
2026-05-06 18:12 38.66315 -94.61298 30026 ft 347 kts 281°
2026-05-06 18:13 38.68209 -94.66972 30007 ft 347 kts 281°
2026-05-06 18:13 38.70103 -94.72656 30040 ft 347 kts 281°
2026-05-06 18:14 38.71997 -94.78348 30049 ft 347 kts 281°
2026-05-06 18:14 38.73885 -94.84035 30073 ft 348 kts 281°
2026-05-06 18:15 38.75762 -94.89702 30101 ft 348 kts 281°
2026-05-06 18:15 38.77649 -94.95411 30122 ft 348 kts 281°
2026-05-06 18:16 38.79538 -95.01137 30160 ft 349 kts 281°
2026-05-06 18:16 38.81421 -95.06867 30159 ft 349 kts 280°
2026-05-06 18:17 38.83292 -95.12600 30157 ft 349 kts 281°
2026-05-06 18:17 38.85163 -95.18269 30160 ft 350 kts 281°
2026-05-06 18:18 38.87050 -95.24018 30161 ft 350 kts 281°
2026-05-06 18:18 38.88928 -95.29763 30171 ft 350 kts 281°
2026-05-06 18:19 38.90808 -95.35534 30175 ft 350 kts 281°
2026-05-06 18:19 38.92671 -95.41261 30171 ft 350 kts 281°
2026-05-06 18:20 38.94547 -95.47040 30180 ft 351 kts 281°
2026-05-06 18:20 38.96421 -95.52824 30183 ft 351 kts 281°
2026-05-06 18:21 38.98300 -95.58637 30170 ft 352 kts 281°
2026-05-06 18:21 39.00154 -95.64383 30171 ft 353 kts 281°
2026-05-06 18:22 39.02029 -95.70205 30180 ft 353 kts 281°
2026-05-06 18:22 39.03905 -95.76047 30176 ft 353 kts 281°
2026-05-06 18:23 39.05778 -95.81886 30177 ft 353 kts 281°
2026-05-06 18:23 39.07649 -95.87730 30172 ft 353 kts 281°
2026-05-06 18:24 39.09505 -95.93543 30181 ft 354 kts 281°
2026-05-06 18:24 39.11370 -95.99397 30177 ft 354 kts 281°
2026-05-06 18:25 39.13240 -96.05281 30177 ft 355 kts 281°
2026-05-06 18:25 39.15089 -96.11108 30176 ft 356 kts 281°
2026-05-06 18:26 39.16959 -96.17012 30181 ft 356 kts 281°
2026-05-06 18:26 39.18193 -96.20917 30182 ft 357 kts 281°
2026-05-06 18:27 39.20065 -96.26849 30182 ft 358 kts 281°
2026-05-06 18:27 39.21940 -96.32807 30188 ft 359 kts 281°
2026-05-06 18:28 39.23819 -96.38786 30184 ft 360 kts 281°
2026-05-06 18:28 39.25686 -96.44743 30187 ft 361 kts 281°
2026-05-06 18:29 39.27571 -96.50770 30182 ft 362 kts 282°
2026-05-06 18:29 39.29458 -96.56815 30190 ft 364 kts 282°
2026-05-06 18:30 39.31348 -96.62884 30194 ft 365 kts 282°
2026-05-06 18:30 39.33242 -96.68978 30180 ft 366 kts 282°
2026-05-06 18:31 39.35128 -96.75060 30188 ft 367 kts 282°
2026-05-06 18:31 39.37027 -96.81199 30188 ft 369 kts 283°
2026-05-06 18:32 39.38931 -96.87364 30181 ft 370 kts 283°
2026-05-06 18:32 39.40839 -96.93560 30189 ft 372 kts 283°
2026-05-06 18:33 39.42737 -96.99738 30182 ft 373 kts 283°
2026-05-06 18:33 39.44618 -97.05872 30189 ft 375 kts 283°
2026-05-06 18:34 39.46539 -97.12152 30182 ft 376 kts 284°
2026-05-06 18:34 39.48467 -97.18469 30179 ft 378 kts 284°
2026-05-06 18:35 39.50395 -97.24804 30175 ft 379 kts 284°
2026-05-06 18:35 39.52308 -97.31131 30180 ft 380 kts 284°
2026-05-06 18:36 39.54241 -97.37516 30173 ft 381 kts 284°
2026-05-06 18:36 39.56183 -97.43911 30174 ft 382 kts 284°
2026-05-06 18:37 39.57796 -97.49244 30194 ft 382 kts 284°
2026-05-06 18:37 39.59732 -97.55673 30182 ft 383 kts 285°
2026-05-06 18:38 39.61977 -97.63152 30181 ft 384 kts 285°
2026-05-06 18:38 39.63585 -97.68519 30189 ft 384 kts 285°
2026-05-06 18:39 39.65519 -97.74992 30189 ft 385 kts 285°
2026-05-06 18:40 39.68730 -97.85770 30178 ft 385 kts 285°
2026-05-06 18:40 39.70346 -97.91209 30180 ft 385 kts 285°
2026-05-06 18:41 39.72227 -97.97558 30172 ft 386 kts 285°
2026-05-06 18:41 39.73722 -98.02612 30169 ft 385 kts 285°
2026-05-06 18:42 39.75761 -98.09524 30170 ft 385 kts 285°
2026-05-06 18:42 39.77362 -98.14963 30179 ft 385 kts 285°
2026-05-06 18:43 39.79258 -98.21417 30179 ft 384 kts 285°
2026-05-06 18:43 39.81381 -98.27807 30172 ft 391 kts 294°
2026-05-06 18:44 39.84219 -98.33852 30176 ft 391 kts 294°
2026-05-06 18:44 39.87057 -98.39870 30184 ft 390 kts 294°
2026-05-06 18:45 39.89857 -98.45854 30176 ft 389 kts 294°
2026-05-06 18:45 39.92655 -98.51867 30177 ft 388 kts 294°
2026-05-06 18:46 39.95437 -98.57867 30176 ft 387 kts 294°
2026-05-06 18:46 39.98242 -98.63940 30298 ft 396 kts 294°
2026-05-06 18:46 39.99668 -98.67036 30461 ft 400 kts 294°
2026-05-06 18:47 40.01100 -98.70138 30751 ft 400 kts 294°
2026-05-06 18:47 40.02512 -98.73194 31128 ft 397 kts 294°
2026-05-06 18:47 40.03932 -98.76271 31497 ft 395 kts 294°
2026-05-06 18:47 40.05342 -98.79329 31855 ft 393 kts 294°
2026-05-06 18:48 40.06749 -98.82387 32139 ft 392 kts 293°
2026-05-06 18:48 40.09562 -98.88521 32178 ft 395 kts 294°
2026-05-06 18:49 40.12371 -98.94653 32171 ft 393 kts 293°
2026-05-06 18:49 40.15165 -99.00760 32169 ft 390 kts 293°
2026-05-06 18:50 40.17918 -99.06792 32165 ft 388 kts 293°
2026-05-06 18:50 40.20676 -99.12851 32169 ft 387 kts 293°
2026-05-06 18:51 40.23430 -99.18911 32171 ft 388 kts 293°
2026-05-06 18:51 40.26184 -99.24987 32172 ft 389 kts 293°
2026-05-06 18:52 40.28934 -99.31064 32171 ft 390 kts 293°
2026-05-06 18:52 40.31701 -99.37188 32169 ft 392 kts 294°
2026-05-06 18:53 40.34477 -99.43344 32171 ft 393 kts 294°
2026-05-06 18:54 40.40246 -99.56178 32171 ft 395 kts 294°
2026-05-06 18:54 40.43032 -99.62393 32170 ft 396 kts 294°
2026-05-06 18:55 40.45824 -99.68634 32176 ft 396 kts 294°
2026-05-06 18:55 40.48608 -99.74871 32181 ft 396 kts 294°
2026-05-06 18:56 40.51394 -99.81125 32183 ft 397 kts 294°
2026-05-06 18:56 40.53379 -99.85589 32172 ft 397 kts 294°
2026-05-06 18:57 40.56160 -99.91855 32176 ft 397 kts 294°
2026-05-06 18:57 40.58939 -99.98128 32174 ft 397 kts 294°
2026-05-06 18:58 40.61711 -100.04399 32170 ft 397 kts 294°
2026-05-06 18:58 40.64485 -100.10688 32174 ft 397 kts 295°
2026-05-06 18:59 40.67239 -100.16943 32170 ft 398 kts 295°
2026-05-06 18:59 40.70011 -100.23255 32174 ft 398 kts 295°
2026-05-06 19:00 40.72787 -100.29587 32173 ft 399 kts 295°
2026-05-06 19:00 40.75568 -100.35943 32166 ft 400 kts 295°
2026-05-06 19:01 40.78332 -100.42274 32168 ft 401 kts 295°
2026-05-06 19:01 40.81118 -100.48670 32180 ft 402 kts 296°
2026-05-06 19:02 40.83904 -100.55079 32173 ft 404 kts 296°
2026-05-06 19:02 40.86701 -100.61526 32171 ft 404 kts 296°
2026-05-06 19:03 40.89493 -100.67974 32171 ft 405 kts 296°
2026-05-06 19:03 40.92269 -100.74401 32172 ft 405 kts 296°
2026-05-06 19:04 40.95054 -100.80861 32163 ft 405 kts 296°
2026-05-06 19:04 40.97841 -100.87340 32161 ft 405 kts 296°
2026-05-06 19:05 41.00615 -100.93803 32170 ft 405 kts 296°
2026-05-06 19:05 41.03378 -101.00254 32161 ft 405 kts 296°
2026-05-06 19:06 41.06150 -101.06738 32176 ft 404 kts 297°
2026-05-06 19:06 41.08918 -101.13230 32181 ft 405 kts 297°
2026-05-06 19:07 41.11684 -101.19730 32180 ft 405 kts 297°
2026-05-06 19:07 41.14454 -101.26252 32165 ft 406 kts 297°
2026-05-06 19:08 41.17201 -101.32736 32168 ft 406 kts 297°
2026-05-06 19:08 41.19966 -101.39278 32167 ft 407 kts 297°
2026-05-06 19:09 41.22732 -101.45834 32167 ft 408 kts 297°
2026-05-06 19:09 41.25513 -101.52439 32164 ft 409 kts 297°
2026-05-06 19:10 41.28270 -101.59005 32166 ft 410 kts 297°
2026-05-06 19:10 41.31047 -101.65629 32166 ft 411 kts 297°
2026-05-06 19:11 41.33825 -101.72274 32160 ft 411 kts 297°
2026-05-06 19:11 41.35673 -101.76701 32165 ft 412 kts 298°
2026-05-06 19:12 41.38452 -101.83372 32163 ft 412 kts 298°
2026-05-06 19:12 41.41211 -101.90009 32160 ft 412 kts 298°
2026-05-06 19:13 41.43983 -101.96692 32159 ft 412 kts 298°
2026-05-06 19:13 41.46753 -102.03386 32164 ft 412 kts 298°
2026-05-06 19:14 41.49519 -102.10084 32155 ft 412 kts 298°
2026-05-06 19:14 41.52279 -102.16786 32156 ft 412 kts 298°
2026-05-06 19:15 41.55018 -102.23449 32154 ft 412 kts 299°
2026-05-06 19:15 41.57771 -102.30163 32154 ft 412 kts 299°
2026-05-06 19:16 41.60522 -102.36885 32151 ft 412 kts 299°
2026-05-06 19:16 41.63268 -102.43612 32148 ft 413 kts 299°
2026-05-06 19:17 41.66016 -102.50360 32161 ft 413 kts 300°
2026-05-06 19:17 41.68739 -102.57061 32144 ft 413 kts 300°
2026-05-06 19:18 41.71484 -102.63831 32137 ft 414 kts 300°
2026-05-06 19:18 41.74222 -102.70599 32134 ft 414 kts 300°
2026-05-06 19:19 41.76945 -102.77346 32140 ft 414 kts 300°
2026-05-06 19:19 41.79681 -102.84142 32143 ft 415 kts 301°
2026-05-06 19:20 41.82414 -102.90946 32138 ft 415 kts 301°
2026-05-06 19:20 41.85146 -102.97763 32135 ft 415 kts 301°
2026-05-06 19:21 41.87870 -103.04576 32136 ft 415 kts 301°
2026-05-06 19:21 41.90593 -103.11402 32144 ft 415 kts 302°
2026-05-06 19:22 41.93294 -103.18187 32145 ft 415 kts 302°
2026-05-06 19:22 41.96002 -103.25008 32149 ft 415 kts 302°
2026-05-06 19:23 41.98721 -103.31872 32153 ft 415 kts 303°
2026-05-06 19:23 42.01429 -103.38723 32157 ft 416 kts 303°
2026-05-06 19:24 42.04139 -103.45598 32157 ft 416 kts 303°
2026-05-06 19:24 42.06827 -103.52433 32157 ft 416 kts 304°
2026-05-06 19:25 42.09526 -103.59309 32151 ft 416 kts 304°
2026-05-06 19:25 42.12226 -103.66208 32151 ft 416 kts 304°
2026-05-06 19:26 42.14917 -103.73100 32153 ft 416 kts 304°
2026-05-06 19:26 42.16643 -103.77527 32151 ft 415 kts 305°
2026-05-06 19:27 42.19324 -103.84419 32145 ft 415 kts 305°
2026-05-06 19:27 42.21998 -103.91310 32146 ft 414 kts 305°
2026-05-06 19:28 42.24663 -103.98196 32145 ft 414 kts 306°
2026-05-06 19:28 42.27317 -104.05067 32142 ft 413 kts 306°
2026-05-06 19:29 42.29966 -104.11941 32138 ft 412 kts 306°
2026-05-06 19:29 42.32584 -104.18752 32147 ft 411 kts 306°
2026-05-06 19:30 42.35208 -104.25595 32134 ft 410 kts 307°
2026-05-06 19:30 42.37818 -104.32417 32145 ft 408 kts 307°
2026-05-06 19:31 42.40427 -104.39253 32145 ft 407 kts 307°
2026-05-06 19:31 42.44314 -104.49468 32140 ft 406 kts 307°
2026-05-06 19:32 42.46875 -104.56217 32141 ft 406 kts 307°
2026-05-06 19:32 42.49450 -104.63021 32143 ft 405 kts 307°
2026-05-06 19:33 42.52016 -104.69814 32144 ft 405 kts 307°
2026-05-06 19:33 42.54577 -104.76612 32153 ft 405 kts 307°
2026-05-06 19:34 42.57119 -104.83375 32147 ft 405 kts 307°
2026-05-06 19:34 42.59674 -104.90190 32143 ft 405 kts 307°
2026-05-06 19:35 42.62222 -104.97004 32145 ft 405 kts 307°
2026-05-06 19:35 42.64768 -105.03827 32132 ft 405 kts 307°
2026-05-06 19:36 42.67290 -105.10603 32131 ft 405 kts 307°
2026-05-06 19:36 42.69825 -105.17429 32113 ft 405 kts 307°
2026-05-06 19:37 42.72358 -105.24268 32117 ft 404 kts 307°
2026-05-06 19:37 42.74456 -105.29945 32114 ft 404 kts 307°
2026-05-06 19:38 42.77380 -105.37875 32116 ft 404 kts 307°
2026-05-06 19:38 42.79890 -105.44701 32114 ft 403 kts 307°
2026-05-06 19:39 42.82395 -105.51528 32113 ft 403 kts 307°
2026-05-06 19:39 42.84892 -105.58351 32113 ft 403 kts 307°
2026-05-06 19:40 42.87384 -105.65180 32111 ft 402 kts 307°
2026-05-06 19:40 42.89864 -105.71992 32116 ft 401 kts 307°
2026-05-06 19:41 42.92322 -105.78757 32110 ft 400 kts 307°
2026-05-06 19:41 42.93953 -105.83255 32119 ft 400 kts 307°
2026-05-06 19:42 42.96415 -105.90060 32106 ft 400 kts 307°
2026-05-06 19:42 42.98874 -105.96869 32105 ft 400 kts 307°
2026-05-06 19:43 43.01073 -106.03850 32114 ft 407 kts 300°
2026-05-06 19:43 43.02955 -106.11161 32107 ft 408 kts 300°
2026-05-06 19:44 43.04824 -106.18493 32110 ft 408 kts 300°
2026-05-06 19:44 43.06702 -106.25817 32108 ft 408 kts 300°
2026-05-06 19:45 43.08582 -106.33130 32114 ft 408 kts 300°
2026-05-06 19:45 43.10446 -106.40390 32109 ft 408 kts 300°
2026-05-06 19:46 43.12323 -106.47718 32105 ft 408 kts 299°
2026-05-06 19:46 43.14196 -106.55054 32099 ft 408 kts 299°
2026-05-06 19:47 43.16059 -106.62378 32094 ft 408 kts 299°
2026-05-06 19:47 43.17909 -106.69675 32099 ft 407 kts 299°
2026-05-06 19:48 43.19764 -106.77010 32093 ft 408 kts 299°
2026-05-06 19:48 43.21616 -106.84356 32096 ft 407 kts 299°
2026-05-06 19:49 43.23462 -106.91704 32099 ft 407 kts 298°
2026-05-06 19:49 43.25296 -106.99025 32103 ft 407 kts 298°
2026-05-06 19:50 43.27119 -107.06329 32112 ft 406 kts 298°
2026-05-06 19:50 43.28945 -107.13666 32122 ft 406 kts 298°
2026-05-06 19:51 43.30765 -107.20999 32127 ft 406 kts 298°
2026-05-06 19:51 43.32577 -107.28331 32123 ft 405 kts 298°
2026-05-06 19:52 43.34077 -107.34414 32139 ft 404 kts 298°
2026-05-06 19:52 43.36168 -107.42916 32134 ft 404 kts 298°
2026-05-06 19:53 43.37659 -107.48999 32139 ft 404 kts 298°
2026-05-06 19:53 43.39445 -107.56310 32138 ft 404 kts 298°
2026-05-06 19:54 43.41231 -107.63642 32137 ft 404 kts 298°
2026-05-06 19:54 43.43011 -107.70975 32139 ft 405 kts 298°
2026-05-06 19:55 43.44781 -107.78285 32140 ft 405 kts 297°
2026-05-06 19:55 43.46560 -107.85661 32133 ft 407 kts 297°
2026-05-06 19:56 43.48336 -107.93049 32142 ft 407 kts 297°
2026-05-06 19:56 43.49543 -107.98081 32131 ft 408 kts 297°
2026-05-06 19:57 43.51286 -108.05532 32123 ft 409 kts 296°
2026-05-06 19:57 43.52967 -108.12975 32121 ft 409 kts 296°
2026-05-06 19:58 43.54650 -108.20466 32117 ft 410 kts 296°
2026-05-06 19:58 43.56335 -108.27968 32105 ft 410 kts 296°
2026-05-06 19:59 43.58019 -108.35472 32091 ft 409 kts 296°
2026-05-06 19:59 43.59692 -108.42956 32116 ft 408 kts 296°
2026-05-06 20:00 43.61347 -108.50376 32101 ft 407 kts 296°
2026-05-06 20:00 43.63001 -108.57821 32108 ft 405 kts 296°
2026-05-06 20:01 43.64650 -108.65264 32100 ft 405 kts 296°
2026-05-06 20:01 43.66290 -108.72693 32116 ft 404 kts 296°
2026-05-06 20:02 43.67923 -108.80120 32104 ft 404 kts 296°
2026-05-06 20:02 43.69542 -108.87502 32107 ft 404 kts 295°
2026-05-06 20:03 43.71166 -108.94937 32108 ft 405 kts 295°
2026-05-06 20:03 43.72791 -109.02399 32099 ft 406 kts 295°
2026-05-06 20:04 43.74412 -109.09876 32100 ft 406 kts 295°
2026-05-06 20:04 43.76028 -109.17355 32093 ft 406 kts 295°
2026-05-06 20:05 43.77628 -109.24791 32100 ft 406 kts 295°
2026-05-06 20:05 43.79238 -109.32292 32095 ft 406 kts 295°
2026-05-06 20:06 43.80838 -109.39779 32099 ft 406 kts 295°
2026-05-06 20:06 43.82436 -109.47276 32113 ft 406 kts 295°
2026-05-06 20:07 43.84027 -109.54762 32100 ft 409 kts 295°
2026-05-06 20:07 43.85622 -109.62309 32116 ft 408 kts 295°
2026-05-06 20:08 43.87211 -109.69854 32109 ft 408 kts 295°
2026-05-06 20:08 43.88792 -109.77389 32116 ft 407 kts 294°
2026-05-06 20:09 43.90356 -109.84861 32138 ft 405 kts 294°
2026-05-06 20:09 43.91919 -109.92354 32115 ft 406 kts 294°
2026-05-06 20:10 43.93480 -109.99875 32127 ft 405 kts 294°
2026-05-06 20:10 43.95030 -110.07374 32137 ft 405 kts 294°
2026-05-06 20:11 43.96575 -110.14860 32139 ft 407 kts 294°
2026-05-06 20:11 43.97623 -110.19957 32133 ft 408 kts 294°
2026-05-06 20:12 43.99173 -110.27525 32122 ft 408 kts 294°
2026-05-06 20:12 44.00720 -110.35111 32137 ft 407 kts 294°
2026-05-06 20:13 44.02259 -110.42684 32153 ft 407 kts 294°
2026-05-06 20:13 44.03785 -110.50212 32147 ft 408 kts 294°
2026-05-06 20:14 44.05316 -110.57802 32161 ft 408 kts 293°
2026-05-06 20:14 44.06842 -110.65391 32160 ft 407 kts 293°
2026-05-06 20:15 44.08365 -110.72997 32151 ft 408 kts 293°
2026-05-06 20:15 44.09873 -110.80551 32155 ft 408 kts 293°
2026-05-06 20:16 44.11389 -110.88175 32149 ft 409 kts 293°
2026-05-06 20:16 44.12898 -110.95798 32155 ft 409 kts 293°
2026-05-06 20:17 44.14398 -111.03412 32156 ft 408 kts 292°
2026-05-06 20:17 44.15895 -111.11036 32156 ft 408 kts 292°
2026-05-06 20:18 44.17376 -111.18602 32148 ft 408 kts 292°
2026-05-06 20:18 44.18862 -111.26229 32151 ft 408 kts 292°
2026-05-06 20:19 44.20341 -111.33847 32143 ft 408 kts 292°
2026-05-06 20:19 44.21810 -111.41440 32147 ft 408 kts 292°
2026-05-06 20:20 44.23250 -111.48916 32136 ft 407 kts 292°
2026-05-06 20:20 44.24720 -111.56573 32123 ft 408 kts 292°
2026-05-06 20:21 44.26179 -111.64210 32140 ft 407 kts 292°
2026-05-06 20:21 44.27623 -111.71794 32130 ft 407 kts 292°
2026-05-06 20:22 44.29071 -111.79433 32130 ft 406 kts 292°
2026-05-06 20:22 44.30512 -111.87064 32119 ft 406 kts 292°
2026-05-06 20:23 44.31947 -111.94694 32119 ft 406 kts 292°
2026-05-06 20:23 44.33370 -112.02290 32115 ft 405 kts 291°
2026-05-06 20:24 44.34782 -112.09858 32106 ft 404 kts 291°
2026-05-06 20:24 44.36195 -112.17463 32105 ft 404 kts 291°
2026-05-06 20:25 44.37599 -112.25050 32100 ft 403 kts 291°
2026-05-06 20:25 44.38987 -112.32579 32100 ft 402 kts 291°
2026-05-06 20:26 44.40376 -112.40144 32099 ft 402 kts 291°
2026-05-06 20:26 44.41203 -112.44661 32094 ft 402 kts 291°
2026-05-06 20:27 44.42583 -112.52224 32079 ft 401 kts 291°
2026-05-06 20:27 44.43950 -112.59765 32082 ft 399 kts 291°
2026-05-06 20:28 44.45307 -112.67258 32064 ft 400 kts 291°
2026-05-06 20:28 44.46667 -112.74802 32059 ft 399 kts 291°
2026-05-06 20:29 44.48019 -112.82337 32064 ft 400 kts 290°
2026-05-06 20:29 44.49375 -112.89920 32064 ft 403 kts 290°
2026-05-06 20:30 44.51402 -113.01315 32050 ft 404 kts 290°
2026-05-06 20:31 44.52754 -113.08966 32054 ft 405 kts 290°
2026-05-06 20:31 44.54104 -113.16636 32057 ft 406 kts 290°
2026-05-06 20:32 44.55452 -113.24325 32056 ft 406 kts 290°
2026-05-06 20:32 44.56785 -113.31963 32051 ft 406 kts 289°
2026-05-06 20:33 44.58120 -113.39651 32053 ft 405 kts 289°
2026-05-06 20:33 44.59449 -113.47330 32052 ft 404 kts 289°
2026-05-06 20:34 44.60769 -113.54992 32044 ft 404 kts 289°
2026-05-06 20:34 44.62077 -113.62611 32038 ft 403 kts 289°
2026-05-06 20:35 44.63385 -113.70266 32042 ft 402 kts 289°
2026-05-06 20:35 44.64682 -113.77889 32047 ft 402 kts 288°
2026-05-06 20:36 44.65978 -113.85544 32041 ft 402 kts 289°
2026-05-06 20:36 44.67258 -113.93140 32047 ft 402 kts 288°
2026-05-06 20:37 44.68537 -114.00764 32050 ft 400 kts 288°
2026-05-06 20:37 44.69801 -114.08327 32059 ft 398 kts 288°
2026-05-06 20:38 44.71057 -114.15877 32072 ft 395 kts 288°
2026-05-06 20:38 44.72297 -114.23359 32057 ft 396 kts 288°
2026-05-06 20:39 44.73544 -114.30909 32055 ft 398 kts 288°
2026-05-06 20:39 44.74793 -114.38505 32047 ft 400 kts 288°
2026-05-06 20:40 44.76042 -114.46148 32036 ft 403 kts 288°
2026-05-06 20:40 44.77286 -114.53789 32003 ft 404 kts 287°
2026-05-06 20:41 44.78534 -114.61497 32007 ft 404 kts 288°
2026-05-06 20:41 44.79268 -114.66068 32005 ft 400 kts 287°
2026-05-06 20:42 44.80509 -114.73810 32044 ft 401 kts 287°
2026-05-06 20:42 44.81742 -114.81484 32021 ft 403 kts 288°
2026-05-06 20:43 44.82964 -114.89139 32011 ft 403 kts 287°
2026-05-06 20:43 44.84186 -114.96844 32009 ft 402 kts 287°
2026-05-06 20:44 44.85399 -115.04512 32017 ft 401 kts 287°
2026-05-06 20:44 44.86596 -115.12130 32003 ft 400 kts 287°
2026-05-06 20:45 44.87791 -115.19766 32012 ft 400 kts 287°
2026-05-06 20:45 44.88979 -115.27411 32013 ft 399 kts 286°
2026-05-06 20:46 44.90163 -115.35064 32014 ft 399 kts 286°
2026-05-06 20:46 44.91335 -115.42659 32034 ft 399 kts 286°
2026-05-06 20:47 44.92510 -115.50320 32035 ft 400 kts 286°
2026-05-06 20:47 44.93680 -115.57973 32051 ft 400 kts 286°
2026-05-06 20:48 44.94847 -115.65652 32079 ft 401 kts 286°
2026-05-06 20:48 44.96014 -115.73362 32104 ft 401 kts 286°
2026-05-06 20:49 44.97164 -115.81003 32110 ft 399 kts 286°
2026-05-06 20:49 44.98312 -115.88658 32172 ft 397 kts 286°
2026-05-06 20:50 44.99452 -115.96305 32134 ft 397 kts 285°
2026-05-06 20:50 45.00561 -116.03909 32169 ft 395 kts 285°
2026-05-06 20:51 45.01595 -116.11489 32160 ft 396 kts 284°
2026-05-06 20:51 45.02627 -116.19149 32153 ft 397 kts 284°
2026-05-06 20:52 45.03660 -116.26816 32137 ft 398 kts 284°
2026-05-06 20:52 45.04698 -116.34533 32122 ft 399 kts 284°
2026-05-06 20:53 45.05725 -116.42185 32107 ft 399 kts 284°
2026-05-06 20:53 45.06751 -116.49891 32080 ft 399 kts 284°
2026-05-06 20:54 45.07776 -116.57619 32065 ft 400 kts 284°
2026-05-06 20:54 45.08796 -116.65357 32064 ft 400 kts 284°
2026-05-06 20:55 45.09808 -116.73064 32066 ft 401 kts 284°
2026-05-06 20:55 45.10820 -116.80828 32052 ft 401 kts 284°
2026-05-06 20:56 45.11826 -116.88593 32068 ft 400 kts 284°
2026-05-06 20:56 45.12540 -116.94124 32076 ft 400 kts 284°
2026-05-06 20:57 45.13528 -117.01811 32075 ft 400 kts 284°
2026-05-06 20:57 45.14519 -117.09563 32081 ft 400 kts 284°
2026-05-06 20:58 45.15506 -117.17320 32092 ft 401 kts 284°
2026-05-06 20:58 45.16485 -117.25097 32093 ft 400 kts 284°
2026-05-06 20:59 45.17453 -117.32804 32081 ft 400 kts 284°
2026-05-06 20:59 45.18422 -117.40552 32073 ft 399 kts 284°
2026-05-06 21:00 45.19384 -117.48287 32077 ft 398 kts 284°
2026-05-06 21:00 45.20338 -117.56011 32079 ft 398 kts 284°
2026-05-06 21:01 45.21280 -117.63683 32055 ft 398 kts 284°
2026-05-06 21:01 45.22223 -117.71408 32063 ft 398 kts 284°
2026-05-06 21:02 45.23161 -117.79140 32059 ft 398 kts 284°
2026-05-06 21:02 45.24093 -117.86874 32067 ft 398 kts 284°
2026-05-06 21:03 45.25024 -117.94632 32065 ft 399 kts 284°
2026-05-06 21:03 45.25945 -118.02359 32067 ft 400 kts 284°
2026-05-06 21:04 45.26867 -118.10139 32066 ft 400 kts 284°
2026-05-06 21:04 45.27784 -118.17931 32047 ft 401 kts 284°
2026-05-06 21:05 45.28699 -118.25748 32051 ft 402 kts 283°
2026-05-06 21:05 45.29604 -118.33532 32055 ft 402 kts 283°
2026-05-06 21:06 45.30507 -118.41344 32062 ft 401 kts 283°
2026-05-06 21:06 45.31214 -118.47498 32062 ft 400 kts 283°
2026-05-06 21:07 45.32106 -118.55305 32063 ft 400 kts 283°
2026-05-06 21:07 45.32985 -118.63046 32048 ft 400 kts 283°
2026-05-06 21:08 45.33865 -118.70837 32035 ft 399 kts 283°
2026-05-06 21:08 45.34739 -118.78628 32026 ft 399 kts 283°
2026-05-06 21:09 45.35607 -118.86418 32015 ft 398 kts 283°
2026-05-06 21:09 45.36463 -118.94145 32012 ft 398 kts 283°
2026-05-06 21:10 45.37316 -119.01903 32004 ft 397 kts 282°
2026-05-06 21:10 45.38165 -119.09670 32010 ft 397 kts 282°
2026-05-06 21:11 45.38993 -119.17288 32005 ft 397 kts 282°
2026-05-06 21:11 45.39557 -119.22511 32003 ft 396 kts 282°
2026-05-06 21:12 45.40382 -119.30194 32004 ft 395 kts 282°
2026-05-06 21:12 45.41200 -119.37848 32003 ft 395 kts 282°
2026-05-06 21:13 45.42021 -119.45589 32013 ft 395 kts 282°
2026-05-06 21:13 45.42836 -119.53324 32005 ft 395 kts 282°
2026-05-06 21:14 45.43632 -119.60938 32006 ft 396 kts 282°
2026-05-06 21:14 45.44432 -119.68630 32004 ft 396 kts 282°
2026-05-06 21:15 45.45216 -119.76228 32001 ft 396 kts 281°
2026-05-06 21:15 45.45988 -119.83788 31982 ft 376 kts 281°
2026-05-06 21:16 45.46721 -119.91009 32000 ft 366 kts 282°
2026-05-06 21:16 45.47088 -119.94606 31848 ft 369 kts 281°
2026-05-06 21:16 45.47456 -119.98230 31526 ft 368 kts 281°
2026-05-06 21:16 45.47819 -120.01829 31082 ft 365 kts 281°
2026-05-06 21:17 45.48177 -120.05394 30643 ft 362 kts 281°
2026-05-06 21:17 45.48531 -120.08935 30211 ft 360 kts 281°
2026-05-06 21:17 45.48877 -120.12399 29734 ft 357 kts 281°
2026-05-06 21:17 45.49224 -120.15891 29237 ft 354 kts 280°
2026-05-06 21:18 45.49454 -120.18204 28962 ft 351 kts 280°
2026-05-06 21:18 45.49793 -120.21640 28502 ft 348 kts 280°
2026-05-06 21:18 45.50015 -120.23888 28232 ft 345 kts 280°
2026-05-06 21:18 45.50356 -120.27346 27757 ft 342 kts 280°
2026-05-06 21:19 45.50679 -120.30636 27360 ft 339 kts 280°
2026-05-06 21:19 45.51005 -120.33954 26930 ft 336 kts 280°
2026-05-06 21:19 45.51325 -120.37241 26525 ft 334 kts 280°
2026-05-06 21:19 45.51642 -120.40503 26117 ft 331 kts 279°
2026-05-06 21:20 45.51839 -120.43774 25643 ft 332 kts 275°
2026-05-06 21:20 45.51907 -120.47063 25228 ft 331 kts 273°
2026-05-06 21:20 45.51939 -120.50334 24828 ft 329 kts 273°
2026-05-06 21:20 45.51969 -120.53604 24429 ft 328 kts 273°
2026-05-06 21:21 45.52004 -120.56787 24041 ft 326 kts 273°
2026-05-06 21:21 45.52045 -120.60024 23647 ft 325 kts 273°
2026-05-06 21:21 45.52091 -120.63238 23183 ft 324 kts 273°
2026-05-06 21:21 45.52139 -120.66440 22759 ft 322 kts 273°
2026-05-06 21:22 45.52187 -120.69612 22373 ft 319 kts 273°
2026-05-06 21:22 45.52236 -120.72756 21988 ft 316 kts 273°
2026-05-06 21:22 45.52284 -120.75875 21610 ft 313 kts 272°
2026-05-06 21:22 45.52330 -120.78929 21238 ft 310 kts 272°
2026-05-06 21:23 45.52376 -120.81992 20878 ft 309 kts 272°
2026-05-06 21:23 45.52421 -120.85042 20497 ft 307 kts 272°
2026-05-06 21:23 45.52465 -120.88078 20133 ft 305 kts 272°
2026-05-06 21:23 45.52508 -120.91087 19772 ft 303 kts 272°
2026-05-06 21:24 45.52549 -120.94082 19412 ft 300 kts 272°
2026-05-06 21:24 45.52591 -120.97051 19057 ft 298 kts 272°
2026-05-06 21:24 45.52630 -120.99994 18709 ft 297 kts 271°
2026-05-06 21:24 45.52668 -121.02935 18348 ft 295 kts 271°
2026-05-06 21:25 45.52703 -121.05814 17951 ft 294 kts 271°
2026-05-06 21:25 45.52724 -121.08726 17559 ft 293 kts 271°
2026-05-06 21:25 45.52740 -121.11615 17175 ft 291 kts 271°
2026-05-06 21:25 45.52755 -121.14482 16826 ft 288 kts 271°
2026-05-06 21:26 45.52770 -121.17322 16462 ft 287 kts 271°
2026-05-06 21:26 45.52785 -121.20161 16101 ft 285 kts 271°
2026-05-06 21:26 45.52789 -121.20963 15989 ft 285 kts 271°
2026-05-06 21:26 45.52803 -121.23788 15645 ft 283 kts 271°
2026-05-06 21:27 45.52818 -121.26586 15299 ft 282 kts 271°
2026-05-06 21:27 45.52832 -121.29337 14969 ft 281 kts 271°
2026-05-06 21:27 45.52844 -121.32106 14629 ft 280 kts 271°
2026-05-06 21:27 45.52855 -121.34704 14311 ft 280 kts 271°
2026-05-06 21:28 45.52866 -121.37480 13970 ft 279 kts 271°
2026-05-06 21:28 45.52877 -121.40235 13591 ft 277 kts 271°
2026-05-06 21:28 45.52887 -121.42971 13215 ft 276 kts 271°
2026-05-06 21:28 45.52896 -121.45508 12912 ft 273 kts 271°
2026-05-06 21:29 45.52903 -121.48212 12586 ft 271 kts 271°
2026-05-06 21:29 45.52911 -121.50887 12249 ft 270 kts 271°
2026-05-06 21:29 45.52916 -121.53564 11951 ft 270 kts 271°
2026-05-06 21:29 45.52924 -121.56249 11585 ft 271 kts 271°
2026-05-06 21:30 45.52929 -121.58920 11252 ft 270 kts 271°
2026-05-06 21:30 45.52935 -121.61579 10937 ft 269 kts 271°
2026-05-06 21:30 45.52939 -121.64234 10608 ft 268 kts 272°
2026-05-06 21:30 45.52942 -121.66879 10269 ft 265 kts 272°
2026-05-06 21:31 45.52945 -121.69453 10168 ft 255 kts 271°
2026-05-06 21:31 45.52954 -121.71954 10060 ft 248 kts 273°
2026-05-06 21:31 45.53038 -121.74391 9670 ft 250 kts 275°
2026-05-06 21:31 45.53148 -121.76862 9340 ft 247 kts 275°
2026-05-06 21:32 45.53260 -121.79293 9060 ft 246 kts 275°
2026-05-06 21:32 45.53470 -121.84079 8446 ft 238 kts 275°
2026-05-06 21:32 45.53569 -121.86423 8194 ft 237 kts 275°
2026-05-06 21:33 45.53666 -121.88790 7847 ft 239 kts 275°
2026-05-06 21:33 45.53762 -121.91138 7639 ft 235 kts 275°
2026-05-06 21:33 45.53850 -121.93329 7506 ft 230 kts 274°
2026-05-06 21:33 45.53939 -121.95561 7241 ft 228 kts 274°
2026-05-06 21:34 45.54027 -121.97783 7088 ft 222 kts 275°
2026-05-06 21:34 45.54114 -121.99944 6968 ft 213 kts 274°
2026-05-06 21:34 45.54196 -122.02009 6903 ft 208 kts 274°
2026-05-06 21:34 45.54085 -122.04058 6750 ft 210 kts 253°
2026-05-06 21:35 45.53437 -122.05819 6633 ft 216 kts 240°
2026-05-06 21:35 45.52567 -122.07570 6454 ft 219 kts 237°
2026-05-06 21:35 45.51668 -122.09334 6328 ft 219 kts 238°
2026-05-06 21:35 45.50778 -122.11092 6207 ft 217 kts 237°
2026-05-06 21:36 45.49899 -122.12838 6077 ft 217 kts 238°
2026-05-06 21:36 45.49032 -122.14570 5954 ft 217 kts 237°
2026-05-06 21:36 45.48160 -122.16310 5834 ft 212 kts 237°
2026-05-06 21:36 45.47407 -122.18037 5686 ft 200 kts 254°
2026-05-06 21:37 45.47230 -122.19958 5469 ft 195 kts 269°
2026-05-06 21:37 45.47214 -122.21899 5239 ft 196 kts 269°
2026-05-06 21:37 45.47209 -122.23836 4989 ft 195 kts 269°
2026-05-06 21:37 45.47202 -122.25761 4758 ft 193 kts 269°
2026-05-06 21:38 45.47194 -122.27669 4527 ft 193 kts 269°
2026-05-06 21:38 45.47205 -122.29550 4340 ft 190 kts 278°
2026-05-06 21:38 45.47667 -122.31293 4275 ft 190 kts 296°
2026-05-06 21:38 45.48260 -122.32960 4044 ft 193 kts 295°
2026-05-06 21:39 45.48883 -122.34651 3787 ft 191 kts 296°
2026-05-06 21:39 45.49509 -122.36294 3514 ft 188 kts 297°
2026-05-06 21:39 45.50131 -122.37915 3281 ft 185 kts 297°
2026-05-06 21:39 45.50753 -122.39526 3008 ft 185 kts 297°
2026-05-06 21:40 45.51367 -122.41113 2785 ft 179 kts 297°
2026-05-06 21:40 45.51948 -122.42621 2541 ft 168 kts 297°
2026-05-06 21:40 45.52499 -122.44045 2319 ft 161 kts 298°
2026-05-06 21:40 45.53017 -122.45385 2115 ft 154 kts 297°
2026-05-06 21:41 45.53518 -122.46682 1917 ft 153 kts 297°
2026-05-06 21:41 45.53857 -122.47555 1788 ft 145 kts 297°
2026-05-06 21:41 45.54168 -122.48360 1646 ft 141 kts 298°
2026-05-06 21:41 45.54641 -122.49575 1451 ft 140 kts 300°
2026-05-06 21:42 45.55143 -122.50796 1249 ft 144 kts 296°
2026-05-06 21:42 45.55607 -122.52088 1019 ft 150 kts 298°
2026-05-06 21:42 45.56097 -122.53385 785 ft 145 kts 300°
2026-05-06 21:42 45.56588 -122.54618 643 ft 147 kts 300°
2026-05-06 21:43 45.57091 -122.55920 450 ft 152 kts 300°
2026-05-06 21:43 45.57596 -122.57229 233 ft 149 kts 300°
2026-05-06 21:43 45.58102 -122.58515 60 ft 151 kts 301°
2026-05-06 21:43 45.58569 -122.59711 29 ft 111 kts 299°
2026-05-06 21:44 45.58835 -122.60394 30 ft 47 kts 299°
2026-05-06 21:44 45.58904 -122.60539 26 ft 7 kts 345°
2026-05-06 21:44 45.58930 -122.60503 26 ft 5 kts 58°
2026-05-06 21:44 45.58950 -122.60459 27 ft 5 kts 53°
2026-05-06 21:45 45.58974 -122.60421 27 ft 5 kts 45°
2026-05-06 21:45 45.58983 -122.60409 27 ft 5 kts 45°
2026-05-06 21:45 45.58999 -122.60385 27 ft 5 kts 45°
2026-05-06 21:45 45.59024 -122.60350 27 ft 5 kts 45°
2026-05-06 21:46 45.59049 -122.60315 27 ft 5 kts 44°
2026-05-06 21:46 45.59073 -122.60280 27 ft 5 kts 45°
2026-05-06 21:46 45.59109 -122.60229 27 ft 10 kts 45°
2026-05-06 21:46 45.59139 -122.60133 27 ft 11 kts 86°
2026-05-06 21:47 45.59139 -122.60023 27 ft 11 kts 90°
2026-05-06 21:47 45.59135 -122.59934 27 ft 11 kts 103°
2026-05-06 21:47 45.59104 -122.59841 28 ft 10 kts 119°
2026-05-06 21:47 45.59069 -122.59753 28 ft 10 kts 119°
2026-05-06 21:48 45.59039 -122.59676 28 ft 2 kts 119°
2026-05-06 21:48 45.59040 -122.59657 28 ft 2 kts 70°
2026-05-06 21:48 45.59054 -122.59643 28 ft 3 kts 31°
2026-05-06 21:48 45.59070 -122.59635 28 ft 2 kts 16°
2026-05-06 21:49 45.59086 -122.59632 28 ft 2 kts
2026-05-06 21:49 45.59099 -122.59629 28 ft 1 kts
2026-05-06 21:49 45.59100 -122.59629 28 ft 0 kts